Regional Weather Roundup
Issued by NWS Northern Indiana

Home | Current Version | Previous Version | Text Only | Print | Product List | Glossary On
Versions: 1 2 3 4 5 6 7 8 9 10 11 12 13 14 15 16 17 18 19 20 21 22 23 24 25 26 27 28 29 30 31 32 33 34 35 36 37 38 39 40 41 42 43 44 45 46 47 48 49 50
000
ASUS43 KIWX 251610
RWRIWX

KIWX WEATHER ROUNDUP
NATIONAL WEATHER SERVICE NORTHERN INDIANA
1100 AM EST SUN JAN 25 2015

NOTE: "FAIR" INDICATES FEW OR NO CLOUDS BELOW 12,000 FEET WITH NO
SIGNIFICANT WEATHER AND/OR OBSTRUCTIONS TO VISIBILITY.

* THESE STATIONS ARE NOT UNDER NWS QUALITY CONTROL. THEY ALSO MAY NOT
  REPORT WEATHER SUCH AS PRECIPITATION OR FOG.

INZ001>027-251700-
NORTHERN INDIANA

CITY           SKY/WX    TMP DP  RH WIND       PRES   REMARKS
GARY*          LGT SNOW  34  30  86 NE14G26   29.76R WCI  24
VALPARAISO     LGT SNOW  33  32  96 NE13      29.74R FOG     WCI  24
MICHIGAN CITY* LGT SNOW  32  32 100 NE9       29.77R WCI  24
LAPORTE*       LGT RAIN  35  35 100 NE9       29.75R WCI  28
KNOX*          CLOUDY    34  29  81 NE13G18   29.73R WCI  25
SOUTH BEND     LGT SNOW  33  30  88 NE10      29.77R FOG     WCI  25
GOSHEN         LGT SNOW  33  31  92 NE13      29.76R FOG     WCI  24
MONTICELLO*    LGT RAIN  33  33  99 E7        29.69R WCI  27
LOGANSPORT*    LGT RAIN  32  32 100 E8        29.71S WCI  25
ROCHESTER*     LGT RAIN  36  36 100 E7        29.73R
WARSAW*        RAIN      34  32  93 E16       29.74R WCI  23
ANGOLA*        CLOUDY    30  28  93 E10       29.79R WCI  21
FORT WAYNE     LGT SNOW  34  32  92 E22       29.75S FOG     WCI  22
HUNTINGTON*    LGT SNOW  33  30  90 E6        29.73R WCI  27
PERU/GRISSOM   SNOW      32  32 100 E8        29.70R VSB 1/4 WCI  25
MARION*        LGT RAIN  33  33  99 E6        29.73R WCI  27

$$
INZ028>050-251700-
CENTRAL INDIANA

CITY           SKY/WX    TMP DP  RH WIND       PRES   REMARKS
LAFAYETTE      LGT RAIN  34  34 100 NE10      29.66F FOG     WCI  26
KOKOMO*        CLOUDY    34  30  86 E10       29.71R WCI  26
MUNCIE*        LGT RAIN  35  32  88 E8        29.71S FOG     WCI  29
INDIANAPOLIS   LGT RAIN  34  32  92 E10       29.66F WCI  26

$$
MIZ043>046-050>051-056>058-064>065-071>073-077>080-251700-
SOUTHWEST LOWER MICHIGAN

CITY           SKY/WX    TMP DP  RH WIND       PRES   REMARKS
BATTLE CREEK   LGT SNOW  27  19  72 NE13      29.84R WCI  16
BENTON HARBOR  LGT SNOW  29  26  89 NE12G23   29.81R FOG     WCI  19
COLDWATER*     LGT SNOW  28  25  89 NE12      29.81R WCI  18
HILLSDALE*     LGT SNOW  27  24  87 E16       29.81R WCI  15
HOLLAND        CLOUDY    27  16  63 E15G24    29.87R WCI  15
GRAND RAPIDS   PTSUNNY   22  14  71 NE21      29.89R WCI   6
KALAMAZOO      LGT SNOW  26  20  77 NE10G18   29.84R WCI  16
STURGIS*       LGT SNOW  28  27  93 NE14      29.79R WCI  17
THREE RIVERS*  LGT SNOW  28  24  88 NE16      29.82R WCI  15

$$
OHZ001>008-015>018-024>025-251700-
NORTHWEST OHIO

CITY           SKY/WX    TMP DP  RH WIND       PRES   REMARKS
WAUSEON*       DRIZZLE   27  23  86 E22G28    29.84R WCI  12
DEFIANCE       LGT SNOW  28  24  85 E15G24    29.83R FOG     WCI  16
FINDLAY        CLOUDY    30  26  85 NE18G25   29.81R WCI  18
TOLEDO EXPRESS LGT SNOW  25  19  80 E20G30    29.87R WCI  11
TOLEDO METCALF LGT SNOW  25  20  81 NE16G25   29.89R WCI  12
LIMA           LGT SNOW  35  31  85 NE9       29.76R FOG     WCI  28

$$
AND FOR LAKE MICHIGAN COASTAL AND OPEN LAKE BUOY OBSERVATIONS

STATION/POSITION TEMP    WIND        PRES    VSBY  WAVE
                 AIR SEA DIR/SP/G                  HT/PER
                 (F)     (DEG/KT/KT) (MB)    (MI)  (FT/S)
CALUMET HARBOR    32      30/ 17/ 24   N/A
MICHIGAN CITY     33      30/ 20/ 22   N/A
SAINT JOSEPH      31      20/  5/ 13 1010.2R

$$
&&


USA.gov is the U.S. government's official web portal to all federal, state and local government web resources and services.